Tracking 30166 objects as of 22-Jan-2025
HD Live streaming from Space Station
objects crossing your sky now

DMSP 5D-2 F11 DEB

Track DMSP 5D-2 F11 DEB now!
10-day predictions


NORAD ID: 29074
Int'l Code: 1991-082BV
Perigee: 732.8 km
Apogee: 744.3 km
Inclination: 98.6 °
Period: 99.4 minutes
Semi major axis: 7109 km
RCS: 0.0073 m2 (small)
Launch date: November 28, 1991
Source: United States (US)
Launch site: AIR FORCE WESTERN TEST RANGE (AFWTR)

Note: This is SATELLITE DEBRIS
Your satellite tracking list
Your tracking list is empty




NASA's NSSDC Master Catalog

Two Line Element Set (TLE):
1 29074U 91082BV  25022.14121641  .00016019  00000-0  42933-2 0  9993
2 29074  98.6014  96.1046 0008119 271.3389  88.6874 14.48234903 59520
Source of the keplerian elements: AFSPC